Tracking 30115 objects as of 9-Feb-2025
HD Live streaming from Space Station
objects crossing your sky now

DELTA 1 R/B

Track DELTA 1 R/B now!
10-day predictions


NORAD ID: 3036
Int'l Code: 1967-114B
Perigee: 1,417.0 km
Apogee: 1,491.9 km
Inclination: 102.0 °
Period: 114.8 minutes
Semi major axis: 7825 km
RCS: 0.589 m2 (medium)
Launch date: November 10, 1967
Source: United States (US)
Launch site: AIR FORCE WESTERN TEST RANGE (AFWTR)

Note: This is a ROCKET BODY
Your satellite tracking list
Your tracking list is empty




NASA's NSSDC Master Catalog

Two Line Element Set (TLE):
1 03036U 67114B   25040.24253201 -.00000040  00000-0  41064-4 0  9995
2 03036 102.0171 130.0297 0047856 359.8283  63.4317 12.54128480620553
Source of the keplerian elements: AFSPC